Year,Month,Day,Hour,Minute,Value (Times are PST for temperature in C)
2009,06,12,00,00,16.80
2009,06,12,00,01,16.80
2009,06,12,00,02,16.80
2009,06,12,00,03,16.80
2009,06,12,00,04,16.80
2009,06,12,00,05,16.80
2009,06,12,00,06,16.80
2009,06,12,00,07,16.80
2009,06,12,00,08,16.80
2009,06,12,00,09,16.80
2009,06,12,00,10,16.80
2009,06,12,00,11,16.80
2009,06,12,00,12,16.80
2009,06,12,00,13,16.80
2009,06,12,00,14,16.80
2009,06,12,00,15,16.80
2009,06,12,00,16,16.80
2009,06,12,00,17,16.80
2009,06,12,00,18,16.80
2009,06,12,00,19,16.80
2009,06,12,00,20,16.80
2009,06,12,00,21,16.80
2009,06,12,00,22,16.80
2009,06,12,00,23,16.80
2009,06,12,00,24,16.80
2009,06,12,00,25,16.80
2009,06,12,00,26,16.70
2009,06,12,00,27,16.70
2009,06,12,00,28,16.70
2009,06,12,00,29,16.70
2009,06,12,00,30,16.70
2009,06,12,00,31,16.70
2009,06,12,00,32,16.70
2009,06,12,00,33,16.60
2009,06,12,00,34,16.60
2009,06,12,00,35,16.70
2009,06,12,00,36,16.70
2009,06,12,00,37,16.70
2009,06,12,00,38,16.70
2009,06,12,00,39,16.70
2009,06,12,00,40,16.70
2009,06,12,00,41,16.70
2009,06,12,00,42,16.70
2009,06,12,00,43,16.70
2009,06,12,00,44,16.70
2009,06,12,00,45,16.70
2009,06,12,00,46,16.70
2009,06,12,00,47,16.70
2009,06,12,00,48,16.70
2009,06,12,00,49,16.70
2009,06,12,00,50,16.70
2009,06,12,00,51,16.70
2009,06,12,00,52,16.70
2009,06,12,00,53,16.70
2009,06,12,00,54,16.70
2009,06,12,00,55,16.70
2009,06,12,00,56,16.70
2009,06,12,00,57,16.70
2009,06,12,00,58,16.70
2009,06,12,00,59,16.70
2009,06,12,01,00,16.70
2009,06,12,01,01,16.60
2009,06,12,01,02,16.60
2009,06,12,01,03,16.60
2009,06,12,01,04,16.50
2009,06,12,01,05,16.50
2009,06,12,01,06,16.40
2009,06,12,01,07,16.40
2009,06,12,01,08,16.40
2009,06,12,01,09,16.40
2009,06,12,01,10,16.40
2009,06,12,01,11,16.40
2009,06,12,01,12,16.40
2009,06,12,01,13,16.40
2009,06,12,01,14,16.30
2009,06,12,01,15,16.30
2009,06,12,01,16,16.30
2009,06,12,01,17,16.30
2009,06,12,01,18,16.30
2009,06,12,01,19,16.30
2009,06,12,01,20,16.20
2009,06,12,01,21,16.20
2009,06,12,01,22,16.20
2009,06,12,01,23,16.20
2009,06,12,01,24,16.20
2009,06,12,01,25,16.20
2009,06,12,01,26,16.20
2009,06,12,01,27,16.30
2009,06,12,01,28,16.30
2009,06,12,01,29,16.30
2009,06,12,01,30,16.30
2009,06,12,01,31,16.30
2009,06,12,01,32,16.30
2009,06,12,01,33,16.30
2009,06,12,01,34,16.30
2009,06,12,01,35,16.30
2009,06,12,01,36,16.30
2009,06,12,01,37,16.30
2009,06,12,01,38,16.30
2009,06,12,01,39,16.40
2009,06,12,01,40,16.40
2009,06,12,01,41,16.40
2009,06,12,01,42,16.40
2009,06,12,01,43,16.40
2009,06,12,01,44,16.40
2009,06,12,01,45,16.40
2009,06,12,01,46,16.40
2009,06,12,01,47,16.30
2009,06,12,01,48,16.30
2009,06,12,01,49,16.30
2009,06,12,01,50,16.30
2009,06,12,01,51,16.30
2009,06,12,01,52,16.20
2009,06,12,01,53,16.20
2009,06,12,01,54,16.10
2009,06,12,01,55,16.10
2009,06,12,01,56,16.10
2009,06,12,01,57,16.10
2009,06,12,01,58,16.10
2009,06,12,01,59,16.10
2009,06,12,02,00,16.10
2009,06,12,02,01,16.20
2009,06,12,02,02,16.20
2009,06,12,02,03,16.20
2009,06,12,02,04,16.20
2009,06,12,02,05,16.30
2009,06,12,02,06,16.30
2009,06,12,02,07,16.30
2009,06,12,02,08,16.30
2009,06,12,02,09,16.40
2009,06,12,02,10,16.40
2009,06,12,02,11,16.40
2009,06,12,02,12,16.40
2009,06,12,02,13,16.40
2009,06,12,02,14,16.40
2009,06,12,02,15,16.40
2009,06,12,02,16,16.40
2009,06,12,02,17,16.40
2009,06,12,02,18,16.40
2009,06,12,02,19,16.40
2009,06,12,02,20,16.50
2009,06,12,02,21,16.50
2009,06,12,02,22,16.60
2009,06,12,02,23,16.70
2009,06,12,02,24,16.70
2009,06,12,02,25,16.80
2009,06,12,02,26,16.80
2009,06,12,02,27,16.80
2009,06,12,02,28,16.90
2009,06,12,02,29,16.90
2009,06,12,02,30,16.90
2009,06,12,02,31,16.90
2009,06,12,02,32,16.90
2009,06,12,02,33,16.90
2009,06,12,02,34,16.90
2009,06,12,02,35,16.90
2009,06,12,02,36,16.90
2009,06,12,02,37,16.90
2009,06,12,02,38,16.90
2009,06,12,02,39,16.90
2009,06,12,02,40,16.90
2009,06,12,02,41,16.80
2009,06,12,02,42,16.80
2009,06,12,02,43,16.60
2009,06,12,02,44,16.40
2009,06,12,02,45,16.30
2009,06,12,02,46,16.10
2009,06,12,02,47,16.00
2009,06,12,02,48,15.80
2009,06,12,02,49,15.70
2009,06,12,02,50,15.50
2009,06,12,02,51,15.40
2009,06,12,02,52,15.30
2009,06,12,02,53,15.20
2009,06,12,02,54,15.10
2009,06,12,02,55,15.00
2009,06,12,02,56,15.00
2009,06,12,02,57,15.00
2009,06,12,02,58,15.00
2009,06,12,02,59,15.00
2009,06,12,03,00,14.90
2009,06,12,03,01,14.70
2009,06,12,03,02,14.70
2009,06,12,03,03,14.60
2009,06,12,03,04,14.50
2009,06,12,03,05,14.40
2009,06,12,03,06,14.40
2009,06,12,03,07,14.40
2009,06,12,03,08,14.40
2009,06,12,03,09,14.40
2009,06,12,03,10,14.40
2009,06,12,03,11,14.30
2009,06,12,03,12,14.30
2009,06,12,03,13,14.30
2009,06,12,03,14,14.30
2009,06,12,03,15,14.30
2009,06,12,03,16,14.30
2009,06,12,03,17,14.30
2009,06,12,03,18,14.30
2009,06,12,03,19,14.30
2009,06,12,03,20,14.30
2009,06,12,03,21,14.30
2009,06,12,03,22,14.30
2009,06,12,03,23,14.30
2009,06,12,03,24,14.40
2009,06,12,03,25,14.40
2009,06,12,03,26,14.40
2009,06,12,03,27,14.40
2009,06,12,03,28,14.40
2009,06,12,03,29,14.30
2009,06,12,03,30,14.30
2009,06,12,03,31,14.30
2009,06,12,03,32,14.30
2009,06,12,03,33,14.30
2009,06,12,03,34,14.30
2009,06,12,03,35,14.30
2009,06,12,03,36,14.30
2009,06,12,03,37,14.20
2009,06,12,03,38,14.20
2009,06,12,03,39,14.20
2009,06,12,03,40,14.20
2009,06,12,03,41,14.20
2009,06,12,03,42,14.20
2009,06,12,03,43,14.20
2009,06,12,03,44,14.10
2009,06,12,03,45,14.10
2009,06,12,03,46,14.10
2009,06,12,03,47,14.10
2009,06,12,03,48,14.10
2009,06,12,03,49,14.10
2009,06,12,03,50,14.10
2009,06,12,03,51,14.20
2009,06,12,03,52,14.20
2009,06,12,03,53,14.20
2009,06,12,03,54,14.20
2009,06,12,03,55,14.20
2009,06,12,03,56,14.20
2009,06,12,03,57,14.20
2009,06,12,03,58,14.20
2009,06,12,03,59,14.30
2009,06,12,04,00,14.30
2009,06,12,04,01,14.30
2009,06,12,04,02,14.30
2009,06,12,04,03,14.30
2009,06,12,04,04,14.30
2009,06,12,04,05,14.40
2009,06,12,04,06,14.40
2009,06,12,04,07,14.50
2009,06,12,04,08,14.50
2009,06,12,04,09,14.50
2009,06,12,04,10,14.60
2009,06,12,04,11,14.60
2009,06,12,04,12,14.60
2009,06,12,04,13,14.60
2009,06,12,04,14,14.60
2009,06,12,04,15,14.60
2009,06,12,04,16,14.60
2009,06,12,04,17,14.60
2009,06,12,04,18,14.60
2009,06,12,04,19,14.50
2009,06,12,04,20,14.50
2009,06,12,04,21,14.50
2009,06,12,04,22,14.40
2009,06,12,04,23,14.40
2009,06,12,04,24,14.40
2009,06,12,04,25,14.30
2009,06,12,04,26,14.30
2009,06,12,04,27,14.30
2009,06,12,04,28,14.30
2009,06,12,04,29,14.20
2009,06,12,04,30,14.20
2009,06,12,04,31,14.20
2009,06,12,04,32,14.20
2009,06,12,04,33,14.10
2009,06,12,04,34,14.10
2009,06,12,04,35,14.10
2009,06,12,04,36,14.10
2009,06,12,04,37,14.10
2009,06,12,04,38,14.10
2009,06,12,04,39,14.10
2009,06,12,04,40,14.10
2009,06,12,04,41,14.10
2009,06,12,04,42,14.10
2009,06,12,04,43,14.10
2009,06,12,04,44,14.10
2009,06,12,04,45,14.10
2009,06,12,04,46,14.00
2009,06,12,04,47,14.00
2009,06,12,04,48,14.00
2009,06,12,04,49,14.00
2009,06,12,04,50,14.00
2009,06,12,04,51,14.00
2009,06,12,04,52,14.00
2009,06,12,04,53,14.00
2009,06,12,04,54,14.00
2009,06,12,04,55,14.00
2009,06,12,04,56,14.00
2009,06,12,04,57,14.00
2009,06,12,04,58,14.00
2009,06,12,04,59,14.10
2009,06,12,05,00,14.10
2009,06,12,05,01,14.10
2009,06,12,05,02,14.00
2009,06,12,05,03,14.00
2009,06,12,05,04,14.00
2009,06,12,05,05,14.00
2009,06,12,05,06,14.00
2009,06,12,05,07,14.00
2009,06,12,05,08,14.00
2009,06,12,05,09,13.90
2009,06,12,05,10,13.90
2009,06,12,05,11,13.90
2009,06,12,05,12,13.90
2009,06,12,05,13,13.90
2009,06,12,05,14,13.90
2009,06,12,05,15,13.80
2009,06,12,05,16,13.80
2009,06,12,05,17,13.80
2009,06,12,05,18,13.80
2009,06,12,05,19,13.80
2009,06,12,05,20,13.70
2009,06,12,05,21,13.70
2009,06,12,05,22,13.70
2009,06,12,05,23,13.70
2009,06,12,05,24,13.70
2009,06,12,05,25,13.60
2009,06,12,05,26,13.60
2009,06,12,05,27,13.60
2009,06,12,05,28,13.60
2009,06,12,05,29,13.60
2009,06,12,05,30,13.60
2009,06,12,05,31,13.50
2009,06,12,05,32,13.50
2009,06,12,05,33,13.50
2009,06,12,05,34,13.50
2009,06,12,05,35,13.50
2009,06,12,05,36,13.50
2009,06,12,05,37,13.40
2009,06,12,05,38,13.40
2009,06,12,05,39,13.40
2009,06,12,05,40,13.40
2009,06,12,05,41,13.40
2009,06,12,05,42,13.40
2009,06,12,05,43,13.40
2009,06,12,05,44,13.50
2009,06,12,05,45,13.50
2009,06,12,05,46,13.50
2009,06,12,05,47,13.50
2009,06,12,05,48,13.50
2009,06,12,05,49,13.60
2009,06,12,05,50,13.60
2009,06,12,05,51,13.60
2009,06,12,05,52,13.60
2009,06,12,05,53,13.60
2009,06,12,05,54,13.60
2009,06,12,05,55,13.60
2009,06,12,05,56,13.60
2009,06,12,05,57,13.60
2009,06,12,05,58,13.60
2009,06,12,05,59,13.70
2009,06,12,06,00,13.70
2009,06,12,06,01,13.70
2009,06,12,06,02,13.70
2009,06,12,06,03,13.80
2009,06,12,06,04,13.80
2009,06,12,06,05,13.90
2009,06,12,06,06,14.00
2009,06,12,06,07,14.00
2009,06,12,06,08,14.10
2009,06,12,06,09,14.10
2009,06,12,06,10,14.20
2009,06,12,06,11,14.20
2009,06,12,06,12,14.30
2009,06,12,06,13,14.40
2009,06,12,06,14,14.50
2009,06,12,06,15,14.60
2009,06,12,06,16,14.70
2009,06,12,06,17,14.80
2009,06,12,06,18,14.90
2009,06,12,06,19,14.90
2009,06,12,06,20,15.00
2009,06,12,06,21,15.00
2009,06,12,06,22,15.00
2009,06,12,06,23,15.00
2009,06,12,06,24,15.00
2009,06,12,06,25,15.00
2009,06,12,06,26,15.00
2009,06,12,06,27,15.00
2009,06,12,06,28,14.90
2009,06,12,06,29,14.90
2009,06,12,06,30,14.80
2009,06,12,06,31,14.80
2009,06,12,06,32,14.80
2009,06,12,06,33,14.80
2009,06,12,06,34,14.80
2009,06,12,06,35,14.80
2009,06,12,06,36,14.80
2009,06,12,06,37,14.90
2009,06,12,06,38,14.90
2009,06,12,06,39,15.00
2009,06,12,06,40,15.00
2009,06,12,06,41,15.00
2009,06,12,06,42,15.00
2009,06,12,06,43,15.00
2009,06,12,06,44,15.10
2009,06,12,06,45,15.10
2009,06,12,06,46,15.20
2009,06,12,06,47,15.20
2009,06,12,06,48,15.20
2009,06,12,06,49,15.30
2009,06,12,06,50,15.30
2009,06,12,06,51,15.30
2009,06,12,06,52,15.30
2009,06,12,06,53,15.30
2009,06,12,06,54,15.40
2009,06,12,06,55,15.40
2009,06,12,06,56,15.50
2009,06,12,06,57,15.60
2009,06,12,06,58,15.70
2009,06,12,06,59,15.70
2009,06,12,07,00,15.70
2009,06,12,07,01,15.80
2009,06,12,07,02,15.80
2009,06,12,07,03,15.90
2009,06,12,07,04,16.00
2009,06,12,07,05,16.00
2009,06,12,07,06,16.10
2009,06,12,07,07,16.10
2009,06,12,07,08,16.20
2009,06,12,07,09,16.20
2009,06,12,07,10,16.30
2009,06,12,07,11,16.30
2009,06,12,07,12,16.30
2009,06,12,07,13,16.30
2009,06,12,07,14,16.30
2009,06,12,07,15,16.40
2009,06,12,07,16,16.40
2009,06,12,07,17,16.40
2009,06,12,07,18,16.40
2009,06,12,07,19,16.40
2009,06,12,07,20,16.50
2009,06,12,07,21,16.50
2009,06,12,07,22,16.60
2009,06,12,07,23,16.60
2009,06,12,07,24,16.60
2009,06,12,07,25,16.60
2009,06,12,07,26,16.60
2009,06,12,07,27,16.60
2009,06,12,07,28,16.60
2009,06,12,07,29,16.70
2009,06,12,07,30,16.70
2009,06,12,07,31,16.70
2009,06,12,07,32,16.70
2009,06,12,07,33,16.80
2009,06,12,07,34,16.80
2009,06,12,07,35,16.90
2009,06,12,07,36,17.00
2009,06,12,07,37,17.00
2009,06,12,07,38,17.00
2009,06,12,07,39,17.10
2009,06,12,07,40,17.10
2009,06,12,07,41,17.10
2009,06,12,07,42,17.10
2009,06,12,07,43,17.10
2009,06,12,07,44,17.10
2009,06,12,07,45,17.10
2009,06,12,07,46,17.10
2009,06,12,07,47,17.10
2009,06,12,07,48,17.00
2009,06,12,07,49,17.00
2009,06,12,07,50,17.00
2009,06,12,07,51,17.10
2009,06,12,07,52,17.00
2009,06,12,07,53,17.00
2009,06,12,07,54,17.00
2009,06,12,07,55,16.90
2009,06,12,07,56,16.90
2009,06,12,07,57,17.00
2009,06,12,07,58,17.00
2009,06,12,07,59,17.10
2009,06,12,08,00,17.10
2009,06,12,08,01,17.10
2009,06,12,08,02,17.20
2009,06,12,08,03,17.20
2009,06,12,08,04,17.20
2009,06,12,08,05,17.30
2009,06,12,08,06,17.30
2009,06,12,08,07,17.30
2009,06,12,08,08,17.30
2009,06,12,08,09,17.40
2009,06,12,08,10,17.40
2009,06,12,08,11,17.40
2009,06,12,08,12,17.40
2009,06,12,08,13,17.40
2009,06,12,08,14,17.40
2009,06,12,08,15,17.40
2009,06,12,08,16,17.30
2009,06,12,08,17,17.30
2009,06,12,08,18,17.30
2009,06,12,08,19,17.40
2009,06,12,08,20,17.40
2009,06,12,08,21,17.50
2009,06,12,08,22,17.60
2009,06,12,08,23,17.70
2009,06,12,08,24,17.80
2009,06,12,08,25,17.90
2009,06,12,08,26,18.00
2009,06,12,08,27,18.10
2009,06,12,08,28,18.10
2009,06,12,08,29,18.20
2009,06,12,08,30,18.30
2009,06,12,08,31,18.30
2009,06,12,08,32,18.40
2009,06,12,08,33,18.50
2009,06,12,08,34,18.50
2009,06,12,08,35,18.60
2009,06,12,08,36,18.70
2009,06,12,08,37,18.70
2009,06,12,08,38,18.70
2009,06,12,08,39,18.80
2009,06,12,08,40,18.80
2009,06,12,08,41,18.90
2009,06,12,08,42,18.90
2009,06,12,08,43,18.80
2009,06,12,08,44,18.70
2009,06,12,08,45,18.70
2009,06,12,08,46,18.70
2009,06,12,08,47,18.70
2009,06,12,08,48,18.70
2009,06,12,08,49,18.70
2009,06,12,08,50,18.70
2009,06,12,08,51,18.70
2009,06,12,08,52,18.70
2009,06,12,08,53,18.70
2009,06,12,08,54,18.70
2009,06,12,08,55,18.70
2009,06,12,08,56,18.70
2009,06,12,08,57,18.60
2009,06,12,08,58,18.40
2009,06,12,08,59,18.40
2009,06,12,09,00,18.40
2009,06,12,09,01,18.40
2009,06,12,09,02,18.40
2009,06,12,09,03,18.50
2009,06,12,09,04,18.50
2009,06,12,09,05,18.60
2009,06,12,09,06,18.60
2009,06,12,09,07,18.50
2009,06,12,09,08,18.50
2009,06,12,09,09,18.60
2009,06,12,09,10,18.70
2009,06,12,09,11,18.70
2009,06,12,09,12,18.80
2009,06,12,09,13,18.80
2009,06,12,09,14,18.80
2009,06,12,09,15,18.80
2009,06,12,09,16,18.80
2009,06,12,09,17,18.80
2009,06,12,09,18,18.80
2009,06,12,09,19,18.80
2009,06,12,09,20,18.80
2009,06,12,09,21,18.80
2009,06,12,09,22,18.80
2009,06,12,09,23,18.90
2009,06,12,09,24,18.90
2009,06,12,09,25,18.80
2009,06,12,09,26,18.80
2009,06,12,09,27,18.80
2009,06,12,09,28,18.90
2009,06,12,09,29,18.80
2009,06,12,09,30,18.80
2009,06,12,09,31,18.80
2009,06,12,09,32,18.80
2009,06,12,09,33,18.90
2009,06,12,09,34,19.00
2009,06,12,09,35,19.00
2009,06,12,09,36,18.90
2009,06,12,09,37,18.90
2009,06,12,09,38,18.80
2009,06,12,09,39,18.80
2009,06,12,09,40,18.80
2009,06,12,09,41,18.90
2009,06,12,09,42,19.00
2009,06,12,09,43,19.10
2009,06,12,09,44,19.20
2009,06,12,09,45,19.30
2009,06,12,09,46,19.30
2009,06,12,09,47,19.40
2009,06,12,09,48,19.50
2009,06,12,09,49,19.60
2009,06,12,09,50,19.50
2009,06,12,09,51,19.30
2009,06,12,09,52,19.10
2009,06,12,09,53,19.00
2009,06,12,09,54,18.80
2009,06,12,09,55,18.70
2009,06,12,09,56,18.80
2009,06,12,09,57,18.80
2009,06,12,09,58,18.90
2009,06,12,09,59,18.90
2009,06,12,10,00,18.90
2009,06,12,10,01,18.90
2009,06,12,10,02,18.90
2009,06,12,10,03,18.90
2009,06,12,10,04,18.90
2009,06,12,10,05,19.00
2009,06,12,10,06,19.10
2009,06,12,10,07,19.20
2009,06,12,10,08,19.40
2009,06,12,10,09,19.50
2009,06,12,10,10,19.50
2009,06,12,10,11,19.60
2009,06,12,10,12,19.60
2009,06,12,10,13,19.60
2009,06,12,10,14,19.50
2009,06,12,10,15,19.50
2009,06,12,10,16,19.60
2009,06,12,10,17,19.60
2009,06,12,10,18,19.60
2009,06,12,10,19,19.50
2009,06,12,10,20,19.40
2009,06,12,10,21,19.10
2009,06,12,10,22,18.90
2009,06,12,10,23,18.90
2009,06,12,10,24,18.90
2009,06,12,10,25,18.70
2009,06,12,10,26,18.60
2009,06,12,10,27,18.60
2009,06,12,10,28,18.50
2009,06,12,10,29,18.60
2009,06,12,10,30,18.60
2009,06,12,10,31,18.80
2009,06,12,10,32,18.90
2009,06,12,10,33,19.00
2009,06,12,10,34,19.10
2009,06,12,10,35,19.00
2009,06,12,10,36,18.90
2009,06,12,10,37,18.80
2009,06,12,10,38,18.80
2009,06,12,10,39,18.90
2009,06,12,10,40,18.80
2009,06,12,10,41,18.70
2009,06,12,10,42,18.60
2009,06,12,10,43,18.60
2009,06,12,10,44,18.60
2009,06,12,10,45,18.60
2009,06,12,10,46,18.70
2009,06,12,10,47,18.80
2009,06,12,10,48,18.70
2009,06,12,10,49,18.50
2009,06,12,10,50,18.40
2009,06,12,10,51,18.20
2009,06,12,10,52,18.30
2009,06,12,10,53,18.40
2009,06,12,10,54,18.50
2009,06,12,10,55,18.80
2009,06,12,10,56,18.90
2009,06,12,10,57,18.90
2009,06,12,10,58,18.90
2009,06,12,10,59,18.80
2009,06,12,11,00,18.60
2009,06,12,11,01,18.40
2009,06,12,11,02,18.30
2009,06,12,11,03,18.30
2009,06,12,11,04,18.40
2009,06,12,11,05,18.50
2009,06,12,11,06,18.70
2009,06,12,11,07,18.80
2009,06,12,11,08,18.90
2009,06,12,11,09,18.90
2009,06,12,11,10,18.80
2009,06,12,11,11,18.60
2009,06,12,11,12,18.40
2009,06,12,11,13,18.30
2009,06,12,11,14,18.30
2009,06,12,11,15,18.20
2009,06,12,11,16,18.30
2009,06,12,11,17,18.40
2009,06,12,11,18,18.50
2009,06,12,11,19,18.50
2009,06,12,11,20,18.60
2009,06,12,11,21,18.50
2009,06,12,11,22,18.50
2009,06,12,11,23,18.50
2009,06,12,11,24,18.70
2009,06,12,11,25,18.80
2009,06,12,11,26,18.70
2009,06,12,11,27,18.70
2009,06,12,11,28,18.80
2009,06,12,11,29,18.80
2009,06,12,11,30,18.70
2009,06,12,11,31,18.40
2009,06,12,11,32,18.30
2009,06,12,11,33,18.30
2009,06,12,11,34,18.40
2009,06,12,11,35,18.30
2009,06,12,11,36,18.20
2009,06,12,11,37,18.30
2009,06,12,11,38,18.20
2009,06,12,11,39,18.30
2009,06,12,11,40,18.40
2009,06,12,11,41,18.40
2009,06,12,11,42,18.30
2009,06,12,11,43,18.30
2009,06,12,11,44,18.10
2009,06,12,11,45,18.00
2009,06,12,11,46,18.00
2009,06,12,11,47,18.10
2009,06,12,11,48,18.30
2009,06,12,11,49,18.40
2009,06,12,11,50,18.40
2009,06,12,11,51,18.50
2009,06,12,11,52,18.50
2009,06,12,11,53,18.60
2009,06,12,11,54,18.70
2009,06,12,11,55,18.90
2009,06,12,11,56,19.00
2009,06,12,11,57,19.20
2009,06,12,11,58,19.30
2009,06,12,11,59,19.40
2009,06,12,12,00,19.50
2009,06,12,12,01,19.60
2009,06,12,12,02,19.40
2009,06,12,12,03,19.30
2009,06,12,12,04,19.20
2009,06,12,12,05,19.20
2009,06,12,12,06,19.20
2009,06,12,12,07,19.10
2009,06,12,12,08,18.90
2009,06,12,12,09,18.90
2009,06,12,12,10,18.90
2009,06,12,12,11,18.90
2009,06,12,12,12,18.90
2009,06,12,12,13,18.90
2009,06,12,12,14,18.80
2009,06,12,12,15,18.90
2009,06,12,12,16,19.00
2009,06,12,12,17,19.10
2009,06,12,12,18,19.20
2009,06,12,12,19,19.30
2009,06,12,12,20,19.50
2009,06,12,12,21,19.50
2009,06,12,12,22,19.30
2009,06,12,12,23,19.20
2009,06,12,12,24,19.10
2009,06,12,12,25,18.90
2009,06,12,12,26,18.90
2009,06,12,12,27,18.90
2009,06,12,12,28,19.00
2009,06,12,12,29,19.20
2009,06,12,12,30,19.30
2009,06,12,12,31,19.30
2009,06,12,12,32,19.50
2009,06,12,12,33,19.60
2009,06,12,12,34,19.50
2009,06,12,12,35,19.40
2009,06,12,12,36,19.40
2009,06,12,12,37,19.40
2009,06,12,12,38,19.40
2009,06,12,12,39,19.40
2009,06,12,12,40,19.40
2009,06,12,12,41,19.50
2009,06,12,12,42,19.50
2009,06,12,12,43,19.40
2009,06,12,12,44,19.30
2009,06,12,12,45,19.20
2009,06,12,12,46,19.10
2009,06,12,12,47,19.00
2009,06,12,12,48,18.90
2009,06,12,12,49,18.90
2009,06,12,12,50,19.00
2009,06,12,12,51,19.00
2009,06,12,12,52,19.10
2009,06,12,12,53,19.10
2009,06,12,12,54,19.10
2009,06,12,12,55,19.20
2009,06,12,12,56,19.20
2009,06,12,12,57,19.20
2009,06,12,12,58,19.20
2009,06,12,12,59,19.40
2009,06,12,13,00,19.60
2009,06,12,13,01,19.80
2009,06,12,13,02,19.90
2009,06,12,13,03,19.90
2009,06,12,13,04,19.90
2009,06,12,13,05,19.90
2009,06,12,13,06,19.80
2009,06,12,13,07,19.80
2009,06,12,13,08,19.70
2009,06,12,13,09,19.70
2009,06,12,13,10,19.60
2009,06,12,13,11,19.60
2009,06,12,13,12,19.60
2009,06,12,13,13,19.70
2009,06,12,13,14,19.70
2009,06,12,13,15,19.60
2009,06,12,13,16,19.70
2009,06,12,13,17,19.70
2009,06,12,13,18,19.70
2009,06,12,13,19,19.80
2009,06,12,13,20,19.90
2009,06,12,13,21,19.90
2009,06,12,13,22,19.80
2009,06,12,13,23,19.90
2009,06,12,13,24,20.00
2009,06,12,13,25,19.90
2009,06,12,13,26,19.90
2009,06,12,13,27,19.90
2009,06,12,13,28,19.80
2009,06,12,13,29,19.70
2009,06,12,13,30,19.70
2009,06,12,13,31,19.80
2009,06,12,13,32,19.90
2009,06,12,13,33,19.90
2009,06,12,13,34,20.00
2009,06,12,13,35,20.10
2009,06,12,13,36,20.20
2009,06,12,13,37,20.10
2009,06,12,13,38,20.10
2009,06,12,13,39,20.30
2009,06,12,13,40,20.40
2009,06,12,13,41,20.40
2009,06,12,13,42,20.40
2009,06,12,13,43,20.40
2009,06,12,13,44,20.30
2009,06,12,13,45,20.30
2009,06,12,13,46,20.30
2009,06,12,13,47,20.30
2009,06,12,13,48,20.40
2009,06,12,13,49,20.60
2009,06,12,13,50,20.60
2009,06,12,13,51,20.60
2009,06,12,13,52,20.60
2009,06,12,13,53,20.60
2009,06,12,13,54,20.70
2009,06,12,13,55,20.60
2009,06,12,13,56,20.70
2009,06,12,13,57,20.70
2009,06,12,13,58,20.60
2009,06,12,13,59,20.50
2009,06,12,14,00,20.40
2009,06,12,14,01,20.40
2009,06,12,14,02,20.30
2009,06,12,14,03,20.40
2009,06,12,14,04,20.40
2009,06,12,14,05,20.40
2009,06,12,14,06,20.40
2009,06,12,14,07,20.40
2009,06,12,14,08,20.30
2009,06,12,14,09,20.40
2009,06,12,14,10,20.50
2009,06,12,14,11,20.70
2009,06,12,14,12,20.70
2009,06,12,14,13,20.70
2009,06,12,14,14,20.80
2009,06,12,14,15,20.80
2009,06,12,14,16,20.80
2009,06,12,14,17,20.70
2009,06,12,14,18,20.70
2009,06,12,14,19,20.70
2009,06,12,14,20,20.80
2009,06,12,14,21,21.00
2009,06,12,14,22,21.10
2009,06,12,14,23,21.20
2009,06,12,14,24,21.30
2009,06,12,14,25,21.10
2009,06,12,14,26,21.10
2009,06,12,14,27,21.00
2009,06,12,14,28,20.90
2009,06,12,14,29,21.00
2009,06,12,14,30,21.10
2009,06,12,14,31,21.10
2009,06,12,14,32,21.30
2009,06,12,14,33,21.40
2009,06,12,14,34,21.40
2009,06,12,14,35,21.30
2009,06,12,14,36,21.40
2009,06,12,14,37,21.40
2009,06,12,14,38,21.30
2009,06,12,14,39,21.30
2009,06,12,14,40,21.20
2009,06,12,14,41,21.20
2009,06,12,14,42,21.20
2009,06,12,14,43,21.30
2009,06,12,14,44,21.30
2009,06,12,14,45,21.30
2009,06,12,14,46,21.30
2009,06,12,14,47,21.10
2009,06,12,14,48,21.00
2009,06,12,14,49,20.90
2009,06,12,14,50,20.90
2009,06,12,14,51,21.00
2009,06,12,14,52,21.10
2009,06,12,14,53,21.30
2009,06,12,14,54,21.50
2009,06,12,14,55,21.60
2009,06,12,14,56,21.60
2009,06,12,14,57,21.50
2009,06,12,14,58,21.50
2009,06,12,14,59,21.50
2009,06,12,15,00,21.50
2009,06,12,15,01,21.50
2009,06,12,15,02,21.60
2009,06,12,15,03,21.60
2009,06,12,15,04,21.50
2009,06,12,15,05,21.40
2009,06,12,15,06,21.20
2009,06,12,15,07,21.20
2009,06,12,15,08,21.30
2009,06,12,15,09,21.30
2009,06,12,15,10,21.20
2009,06,12,15,11,21.30
2009,06,12,15,12,21.40
2009,06,12,15,13,21.50
2009,06,12,15,14,21.60
2009,06,12,15,15,21.60
2009,06,12,15,16,21.60
2009,06,12,15,17,21.60
2009,06,12,15,18,21.50
2009,06,12,15,19,21.40
2009,06,12,15,20,21.30
2009,06,12,15,21,21.30
2009,06,12,15,22,21.40
2009,06,12,15,23,21.50
2009,06,12,15,24,21.50
2009,06,12,15,25,21.60
2009,06,12,15,26,21.60
2009,06,12,15,27,21.70
2009,06,12,15,28,21.70
2009,06,12,15,29,21.70
2009,06,12,15,30,21.60
2009,06,12,15,31,21.60
2009,06,12,15,32,21.60
2009,06,12,15,33,21.60
2009,06,12,15,34,21.60
2009,06,12,15,35,21.60
2009,06,12,15,36,21.70
2009,06,12,15,37,21.60
2009,06,12,15,38,21.50
2009,06,12,15,39,21.40
2009,06,12,15,40,21.40
2009,06,12,15,41,21.50
2009,06,12,15,42,21.60
2009,06,12,15,43,21.60
2009,06,12,15,44,21.60
2009,06,12,15,45,21.60
2009,06,12,15,46,21.60
2009,06,12,15,47,21.60
2009,06,12,15,48,21.70
2009,06,12,15,49,21.80
2009,06,12,15,50,21.80
2009,06,12,15,51,21.90
2009,06,12,15,52,22.00
2009,06,12,15,53,22.00
2009,06,12,15,54,22.00
2009,06,12,15,55,21.80
2009,06,12,15,56,21.80
2009,06,12,15,57,21.80
2009,06,12,15,58,21.80
2009,06,12,15,59,21.80
2009,06,12,16,00,21.70
2009,06,12,16,01,21.60
2009,06,12,16,02,21.60
2009,06,12,16,03,21.50
2009,06,12,16,04,21.40
2009,06,12,16,05,21.20
2009,06,12,16,06,21.20
2009,06,12,16,07,21.30
2009,06,12,16,08,21.40
2009,06,12,16,09,21.50
2009,06,12,16,10,21.60
2009,06,12,16,11,21.70
2009,06,12,16,12,21.70
2009,06,12,16,13,21.80
2009,06,12,16,14,21.80
2009,06,12,16,15,21.80
2009,06,12,16,16,21.70
2009,06,12,16,17,21.70
2009,06,12,16,18,21.70
2009,06,12,16,19,21.70
2009,06,12,16,20,21.90
2009,06,12,16,21,22.00
2009,06,12,16,22,22.00
2009,06,12,16,23,22.00
2009,06,12,16,24,22.10
2009,06,12,16,25,22.20
2009,06,12,16,26,22.10
2009,06,12,16,27,22.00
2009,06,12,16,28,21.90
2009,06,12,16,29,21.90
2009,06,12,16,30,21.80
2009,06,12,16,31,21.90
2009,06,12,16,32,21.90
2009,06,12,16,33,21.80
2009,06,12,16,34,21.80
2009,06,12,16,35,21.80
2009,06,12,16,36,21.90
2009,06,12,16,37,22.00
2009,06,12,16,38,21.80
2009,06,12,16,39,21.80
2009,06,12,16,40,21.70
2009,06,12,16,41,21.70
2009,06,12,16,42,21.70
2009,06,12,16,43,21.80
2009,06,12,16,44,21.80
2009,06,12,16,45,21.70
2009,06,12,16,46,21.70
2009,06,12,16,47,21.70
2009,06,12,16,48,21.70
2009,06,12,16,49,21.70
2009,06,12,16,50,21.70
2009,06,12,16,51,21.70
2009,06,12,16,52,21.70
2009,06,12,16,53,21.70
2009,06,12,16,54,21.70
2009,06,12,16,55,21.70
2009,06,12,16,56,21.60
2009,06,12,16,57,21.60
2009,06,12,16,58,21.70
2009,06,12,16,59,21.70
2009,06,12,17,00,21.70
2009,06,12,17,01,21.70
2009,06,12,17,02,21.80
2009,06,12,17,03,21.80
2009,06,12,17,04,21.80
2009,06,12,17,05,21.80
2009,06,12,17,06,21.80
2009,06,12,17,07,21.80
2009,06,12,17,08,21.80
2009,06,12,17,09,21.80
2009,06,12,17,10,21.70
2009,06,12,17,11,21.70
2009,06,12,17,12,21.80
2009,06,12,17,13,21.80
2009,06,12,17,14,21.80
2009,06,12,17,15,21.90
2009,06,12,17,16,22.00
2009,06,12,17,17,22.10
2009,06,12,17,18,22.20
2009,06,12,17,19,22.30